Oxford, NC

7:23 PM EST on December 07, 2019 (GMT -0500)
Henderson-Oxford

Weather History for KHNZ - October, 2019

Change the Weather History Date:

Thursday, October 17, 2019

  Actual Average (KTDF) Record (KTDF)
Temperature  
Mean Temperature 50 °F -  
Max Temperature 61 °F 71 °F 86 °F (2011)
Min Temperature 40 °F 45 °F 32 °F (1970)
Degree Days  
Heating Degree Days 14    
Moisture  
Dew Point 33 °F    
Average Humidity 52    
Maximum Humidity 85    
Minimum Humidity 30    
Precipitation  
Precipitation 0.15 in - - ()
Sea Level Pressure  
Sea Level Pressure 29.81 in    
Wind  
Wind Speed 3 mph (WNW)    
Max Wind Speed 14 mph    
Max Gust Speed 24 mph    
Visibility 10 miles    
Events      
Averages and records for this station are not official NWS values.
T = Trace of Precipitation, MM = Missing Value Source: NWS Daily Summary

Daily Weather History Graph

Daily Weather History Graph

Search for Another Location

Airport or City:

Astronomy

Oct. 17, 2019 Rise Set
Actual Time 7:22 AM EDT 6:35 PM EDT
Civil Twilight 6:56 AM EDT 7:01 PM EDT
Nautical Twilight 6:26 AM EDT 7:31 PM EDT
Astronomical Twilight 5:57 AM EDT 8:01 PM EDT
Moon 9:11 PM EDT (10/17) 10:47 AM EDT (10/17)
Length of Visible Light 12h 04m
Length of Day
11h 12m
Waning Gibbous, 87% of the Moon is Illuminated
Oct 17
Waning Gibbous
Oct 21
Last Quarter
Oct 27
New
Nov 4
First Quarter
Nov 12
Full

Hourly Weather History & Observations

Time (EDT) Temp. Windchill Dew Point Humidity Pressure Visibility Wind Dir Wind Speed Gust Speed Precip Events Conditions
12:15 AM 49.1 °F - 34.0 °F 56% 29.77 in 10.0 mi NW 5.8 mph - 0.01 in   Clear
12:35 AM 48.4 °F - 33.4 °F 56% 29.77 in 10.0 mi Calm Calm - 0.02 in   Clear
12:55 AM 47.8 °F - 33.1 °F 57% 29.77 in 10.0 mi Calm Calm - 0.03 in   Clear
1:15 AM 47.1 °F - 33.3 °F 59% 29.77 in 10.0 mi Calm Calm - 0.01 in   Clear
1:35 AM 46.6 °F - 32.7 °F 59% 29.77 in 10.0 mi Calm Calm - 0.02 in   Clear
1:55 AM 46.2 °F - 32.4 °F 58% 29.77 in 10.0 mi Calm Calm - 0.02 in   Clear
2:15 AM 46.0 °F - 32.4 °F 59% 29.77 in 10.0 mi Calm Calm - 0.01 in   Clear
2:55 AM 46.4 °F 42.4 °F 32.7 °F 59% 29.75 in 10.0 mi WNW 8.1 mph - 0.03 in   Clear
3:15 AM 46.4 °F - 32.9 °F 59% 29.74 in 10.0 mi Calm Calm - N/A   Clear
3:35 AM 46.2 °F 44.1 °F 33.1 °F 60% 29.74 in 10.0 mi WNW 4.6 mph - 0.01 in   Clear
3:55 AM 45.7 °F - 33.3 °F 62% 29.74 in 10.0 mi Calm Calm - 0.01 in   Clear
4:15 AM 45.3 °F - 33.8 °F 64% 29.75 in 10.0 mi Calm Calm - 0.01 in   Clear
4:35 AM 44.8 °F - 33.8 °F 65% 29.75 in 10.0 mi Calm Calm - 0.01 in   Clear
4:55 AM 44.8 °F - 34.0 °F 66% 29.75 in 10.0 mi Calm Calm - 0.02 in   Clear
5:15 AM 45.0 °F - 34.2 °F 66% 29.75 in 10.0 mi Calm Calm - N/A   Clear
5:35 AM 43.9 °F - 34.5 °F 70% 29.77 in 10.0 mi Calm Calm - N/A   Clear
5:55 AM 44.6 °F - 34.2 °F 67% 29.77 in 10.0 mi Calm Calm - 0.01 in   Clear
6:15 AM 43.7 °F - 34.2 °F 69% 29.77 in 10.0 mi Calm Calm - N/A   Clear
6:35 AM 41.7 °F - 35.1 °F 77% 29.77 in 10.0 mi Calm Calm - 0.01 in   Clear
6:55 AM 41.0 °F - 35.2 °F 80% 29.77 in 10.0 mi Calm Calm - 0.01 in   Clear
7:15 AM 41.2 °F - 35.1 °F 79% 29.77 in 10.0 mi Calm Calm - N/A   Clear
7:35 AM 40.1 °F - 35.8 °F 85% 29.78 in 10.0 mi Calm Calm - N/A   Clear
7:55 AM 41.0 °F - 36.0 °F 82% 29.78 in 10.0 mi Calm Calm - N/A   Clear
8:15 AM 43.0 °F - 36.1 °F 77% 29.78 in 10.0 mi Calm Calm - 0.01 in   Clear
8:35 AM 44.6 °F - 36.3 °F 73% 29.80 in 10.0 mi Calm Calm - 0.01 in   Clear
8:55 AM 46.8 °F - 35.6 °F 65% 29.80 in 10.0 mi WSW 3.5 mph - 0.01 in   Clear
9:15 AM 47.8 °F - 35.4 °F 62% 29.81 in 10.0 mi Calm Calm - N/A   Clear
9:35 AM 49.5 °F - 36.7 °F 61% 29.82 in 10.0 mi Calm Calm - 0.01 in   Clear
9:55 AM 51.6 °F - 35.8 °F 55% 29.82 in 10.0 mi West 11.5 mph 17.3 mph 0.01 in   Clear
10:15 AM 53.2 °F - 34.3 °F 49% 29.83 in 10.0 mi WNW 9.2 mph 16.1 mph N/A   Clear
10:35 AM 53.4 °F - 33.3 °F 46% 29.84 in 10.0 mi WNW 8.1 mph 19.6 mph N/A   Clear
10:55 AM 54.1 °F - 33.1 °F 45% 29.85 in 10.0 mi WNW 9.2 mph 23.0 mph N/A   Clear
11:35 AM 55.6 °F - 33.3 °F 43% 29.85 in 10.0 mi WNW 12.7 mph 20.7 mph N/A   Clear
12:15 PM 54.5 °F - 33.1 °F 44% 29.85 in 10.0 mi West 5.8 mph - N/A   Clear
12:35 PM 56.1 °F - 32.7 °F 41% 29.85 in 10.0 mi West 6.9 mph 17.3 mph N/A   Clear
12:55 PM 56.8 °F - 32.4 °F 40% 29.84 in 10.0 mi West 10.4 mph - N/A   Clear
1:15 PM 56.8 °F - 32.5 °F 40% 29.84 in 10.0 mi West 8.1 mph 24.2 mph N/A   Clear
1:35 PM 57.4 °F - 32.0 °F 38% 29.84 in 10.0 mi West 9.2 mph - N/A   Clear
1:55 PM 58.8 °F - 32.0 °F 36% 29.82 in 10.0 mi West 6.9 mph 19.6 mph N/A   Clear
2:35 PM 59.5 °F - 31.5 °F 35% 29.82 in 10.0 mi WSW 11.5 mph 17.3 mph N/A   Clear
2:55 PM 60.1 °F - 31.8 °F 34% 29.81 in 10.0 mi NW 11.5 mph 19.6 mph N/A   Clear
3:15 PM 60.8 °F - 29.1 °F 30% 29.80 in 10.0 mi WNW 13.8 mph 19.6 mph N/A   Clear
3:35 PM 61.5 °F - 30.9 °F 32% 29.80 in 10.0 mi WNW 9.2 mph 17.3 mph N/A   Clear
3:55 PM 61.7 °F - 30.6 °F 31% 29.80 in 10.0 mi Calm Calm - N/A   Clear
4:15 PM 61.7 °F - 30.9 °F 31% 29.80 in 10.0 mi WNW 9.2 mph 18.4 mph N/A   Clear
4:35 PM 61.2 °F - 29.8 °F 31% 29.80 in 10.0 mi West 9.2 mph 19.6 mph N/A   Clear
4:55 PM 61.2 °F - 30.2 °F 31% 29.80 in 10.0 mi WNW 11.5 mph 19.6 mph N/A   Clear
5:15 PM 60.8 °F - 30.2 °F 31% 29.80 in 10.0 mi Calm Calm - N/A   Clear
5:35 PM 60.4 °F - 30.7 °F 33% 29.81 in 10.0 mi Calm Calm - N/A   Clear
5:55 PM 59.7 °F - 30.9 °F 34% 29.81 in 10.0 mi WNW 3.5 mph - N/A   Clear
6:15 PM 58.5 °F - 31.3 °F 36% 29.82 in 10.0 mi Calm Calm - N/A   Clear
6:35 PM 56.5 °F - 32.0 °F 39% 29.82 in 10.0 mi Calm Calm - N/A   Clear
7:15 PM 53.6 °F - 33.8 °F 47% 29.84 in 10.0 mi Calm Calm - N/A   Clear
7:35 PM 53.1 °F - 33.4 °F 47% 29.84 in 10.0 mi Calm Calm - N/A   Clear
7:55 PM 52.5 °F - 33.1 °F 48% 29.85 in 10.0 mi Calm Calm - N/A   Clear
8:15 PM 52.0 °F - 33.1 °F 49% 29.86 in 10.0 mi Calm Calm - N/A   Clear
8:35 PM 51.1 °F - 33.4 °F 51% 29.87 in 10.0 mi Calm Calm - N/A   Clear
8:55 PM 51.1 °F - 33.6 °F 51% 29.88 in 10.0 mi Calm Calm - N/A   Clear
9:15 PM 52.0 °F - 33.3 °F 49% 29.88 in 10.0 mi Calm Calm - N/A   Clear
9:35 PM 51.4 °F - 32.9 °F 49% 29.89 in 10.0 mi Calm Calm - N/A   Clear
9:55 PM 51.1 °F - 33.1 °F 50% 29.90 in 10.0 mi Calm Calm - N/A   Clear
10:15 PM 50.7 °F - 33.1 °F 51% 29.90 in 10.0 mi NW 5.8 mph - N/A   Clear
10:35 PM 50.0 °F - 33.1 °F 52% 29.91 in 10.0 mi Calm Calm - N/A   Clear
10:55 PM 49.1 °F - 33.1 °F 54% 29.91 in 10.0 mi Calm Calm - N/A   Clear
11:15 PM 49.1 °F - 32.7 °F 53% 29.91 in 10.0 mi NW 6.9 mph - N/A   Clear
11:35 PM 49.5 °F - 32.4 °F 52% 29.91 in 10.0 mi NNW 8.1 mph - N/A   Clear
11:55 PM 48.6 °F - 32.5 °F 54% 29.91 in 10.0 mi Calm Calm - N/A   Clear